| time (UTC) | temp F | wind direction | speed MPH | gust MPH | rain 1hr in | rain 24hr in | rain mn in | humidity % | barometer mb |
| 20260504100529 | 44 | 0 | 0.0 | 0.0 | 0.00 | 0.00 | 0.00 | 86 | 1017.6 |
| 20260504081545 | 45 | 0 | 0.0 | 0.0 | 0.00 | 0.00 | 0.00 | 85 | 1017.3 |
| 20260504081029 | 45 | 0 | 0.0 | 0.0 | 0.00 | 0.00 | 0.00 | 84 | 1017.3 |
| 20260504080529 | 45 | 0 | 0.0 | 0.0 | 0.00 | 0.00 | 0.00 | 84 | 1017.4 |
| 20260504050530 | 50 | 0 | 0.0 | 0.0 | 0.00 | 0.00 | 0.00 | 75 | 1018.1 |
| 20260504045530 | 50 | 0 | 0.0 | 0.0 | 0.00 | 0.00 | 0.00 | 74 | 1018.1 |
| 20260504045029 | 51 | 0 | 0.0 | 1.0 | 0.00 | 0.00 | 0.00 | 74 | 1018.2 |
| 20260504044545 | 51 | 0 | 0.0 | 1.0 | 0.00 | 0.00 | 0.00 | 73 | 1018.1 |
| 20260504044032 | 51 | 0 | 0.0 | 1.0 | 0.00 | 0.00 | 0.00 | 73 | 1018.1 |
| 20260504043531 | 51 | 0 | 0.0 | 0.0 | 0.00 | 0.00 | 0.00 | 73 | 1018.0 |
| 20260504043042 | 51 | 0 | 0.0 | 2.0 | 0.00 | 0.00 | 0.00 | 73 | 1018.1 |
| 20260504042530 | 51 | 0 | 0.0 | 2.0 | 0.00 | 0.00 | 0.00 | 73 | 1018.1 |
| 20260504042030 | 51 | 0 | 0.0 | 2.0 | 0.00 | 0.00 | 0.00 | 72 | 1018.2 |
| 20260504041541 | 52 | 0 | 0.0 | 1.0 | 0.00 | 0.00 | 0.00 | 72 | 1018.3 |
| 20260504041029 | 52 | 0 | 0.0 | 1.0 | 0.00 | 0.00 | 0.00 | 73 | 1018.2 |
| 20260504040530 | 52 | 0 | 0.0 | 1.0 | 0.00 | 0.00 | 0.00 | 72 | 1018.1 |
| 20260504040044 | 52 | 0 | 0.0 | 1.0 | 0.00 | 0.00 | 0.00 | 72 | 1018.1 |
| 20260504035530 | 52 | 0 | 0.0 | 0.0 | 0.00 | 0.00 | 0.00 | 71 | 1018.3 |
| 20260504035030 | 52 | 0 | 0.0 | 1.0 | 0.00 | 0.00 | 0.00 | 71 | 1018.2 |
| 20260504034536 | 52 | 0 | 0.0 | 1.0 | 0.00 | 0.00 | 0.00 | 71 | 1018.3 |
| 20260504034033 | 52 | 261 | 0.0 | 1.0 | 0.00 | 0.00 | 0.00 | 71 | 1018.2 |
| 20260504033530 | 53 | 0 | 0.0 | 2.0 | 0.00 | 0.00 | 0.00 | 70 | 1018.2 |
| 20260504033043 | 53 | 0 | 0.0 | 2.0 | 0.00 | 0.00 | 0.00 | 70 | 1018.2 |
| 20260504032530 | 53 | 0 | 0.0 | 2.0 | 0.00 | 0.00 | 0.00 | 69 | 1018.3 |
| 20260504032033 | 54 | 262 | 0.0 | 1.0 | 0.00 | 0.00 | 0.00 | 68 | 1018.3 |
| 20260504031546 | 54 | 0 | 0.0 | 0.0 | 0.00 | 0.00 | 0.00 | 67 | 1018.3 |
| 20260504031032 | 54 | 0 | 0.0 | 0.0 | 0.00 | 0.00 | 0.00 | 67 | 1018.2 |
| 20260504030530 | 54 | 0 | 0.0 | 0.0 | 0.00 | 0.00 | 0.00 | 67 | 1018.3 |
| 20260504030045 | 55 | 0 | 0.0 | 1.0 | 0.00 | 0.00 | 0.00 | 66 | 1018.3 |
| 20260504025530 | 55 | 0 | 0.0 | 1.0 | 0.00 | 0.00 | 0.00 | 66 | 1018.3 |
| 20260504025029 | 55 | 0 | 0.0 | 1.0 | 0.00 | 0.00 | 0.00 | 65 | 1018.3 |
| 20260504024537 | 55 | 0 | 0.0 | 0.0 | 0.00 | 0.00 | 0.00 | 64 | 1018.3 |
| 20260504024032 | 56 | 0 | 0.0 | 0.0 | 0.00 | 0.00 | 0.00 | 63 | 1018.2 |
| 20260504023530 | 56 | 0 | 0.0 | 0.0 | 0.00 | 0.00 | 0.00 | 62 | 1018.1 |
| 20260504023038 | 56 | 0 | 0.0 | 0.0 | 0.00 | 0.00 | 0.00 | 61 | 1018.1 |
| 20260504022531 | 57 | 0 | 0.0 | 0.0 | 0.00 | 0.00 | 0.00 | 60 | 1018.2 |
| 20260504022030 | 57 | 0 | 0.0 | 0.0 | 0.00 | 0.00 | 0.00 | 58 | 1018.1 |
| 20260504021544 | 58 | 0 | 0.0 | 0.0 | 0.00 | 0.00 | 0.00 | 58 | 1017.9 |
| 20260504021029 | 58 | 0 | 0.0 | 1.0 | 0.00 | 0.00 | 0.00 | 57 | 1017.9 |
| 20260504020531 | 58 | 0 | 0.0 | 1.0 | 0.00 | 0.00 | 0.00 | 57 | 1017.9 |
| 20260504020042 | 59 | 0 | 0.0 | 2.0 | 0.00 | 0.00 | 0.00 | 56 | 1017.8 |
| 20260504015530 | 59 | 0 | 0.0 | 3.0 | 0.00 | 0.00 | 0.00 | 55 | 1017.7 |
| 20260504015036 | 59 | 0 | 1.0 | 3.0 | 0.00 | 0.00 | 0.00 | 54 | 1017.6 |
| 20260504014553 | 60 | 0 | 0.0 | 3.0 | 0.00 | 0.00 | 0.00 | 54 | 1017.5 |
| 20260504014032 | 60 | 0 | 0.0 | 3.0 | 0.00 | 0.00 | 0.00 | 54 | 1017.5 |
| 20260504013533 | 60 | 264 | 0.0 | 3.0 | 0.00 | 0.00 | 0.00 | 54 | 1017.4 |
| 20260504013043 | 61 | 264 | 0.0 | 3.0 | 0.00 | 0.00 | 0.00 | 53 | 1017.4 |
| 20260504012532 | 61 | 264 | 2.0 | 3.0 | 0.00 | 0.00 | 0.00 | 52 | 1017.4 |
| 20260504012030 | 61 | 267 | 0.0 | 2.0 | 0.00 | 0.00 | 0.00 | 52 | 1017.4 |
| 20260504011539 | 61 | 267 | 1.0 | 2.0 | 0.00 | 0.00 | 0.00 | 51 | 1017.3 |
| 20260504011030 | 62 | 0 | 0.0 | 2.0 | 0.00 | 0.00 | 0.00 | 50 | 1017.3 |
| 20260504010530 | 62 | 0 | 0.0 | 2.0 | 0.00 | 0.00 | 0.00 | 50 | 1017.3 |
| 20260504010051 | 62 | 0 | 0.0 | 2.0 | 0.00 | 0.00 | 0.00 | 49 | 1017.3 |
| 20260504005533 | 62 | 0 | 0.0 | 3.0 | 0.00 | 0.00 | 0.00 | 48 | 1017.3 |
| 20260504005033 | 63 | 267 | 1.0 | 3.0 | 0.00 | 0.00 | 0.00 | 48 | 1017.2 |
| 20260504004543 | 63 | 267 | 0.0 | 4.0 | 0.00 | 0.00 | 0.00 | 47 | 1017.1 |
| 20260504004029 | 63 | 0 | 0.0 | 4.0 | 0.00 | 0.00 | 0.00 | 46 | 1017.1 |
| 20260504003530 | 64 | 267 | 1.0 | 4.0 | 0.00 | 0.00 | 0.00 | 46 | 1017.0 |
| 20260504003043 | 64 | 272 | 1.0 | 3.0 | 0.00 | 0.00 | 0.00 | 45 | 1016.8 |
| 20260504002529 | 64 | 273 | 1.0 | 3.0 | 0.00 | 0.00 | 0.00 | 44 | 1016.8 |
| 20260504002029 | 65 | 275 | 1.0 | 3.0 | 0.00 | 0.00 | 0.00 | 43 | 1016.9 |
| 20260504001547 | 65 | 0 | 0.0 | 4.0 | 0.00 | 0.00 | 0.00 | 42 | 1016.8 |
| 20260504001029 | 65 | 0 | 0.0 | 4.0 | 0.00 | 0.00 | 0.00 | 42 | 1016.9 |
| 20260504000529 | 65 | 276 | 0.0 | 4.0 | 0.00 | 0.00 | 0.00 | 41 | 1016.9 |
| 20260504000045 | 65 | 290 | 1.0 | 3.0 | 0.00 | 0.00 | 0.00 | 40 | 1016.9 |
| 20260503235530 | 66 | 0 | 1.0 | 3.0 | 0.00 | 0.00 | 0.00 | 40 | 1016.8 |
| 20260503235031 | 66 | 0 | 1.0 | 3.0 | 0.00 | 0.00 | 0.00 | 39 | 1016.8 |
| 20260503234535 | 66 | 268 | 1.0 | 7.0 | 0.00 | 0.00 | 0.00 | 39 | 1016.9 |
| 20260503234030 | 66 | 0 | 1.0 | 7.0 | 0.00 | 0.00 | 0.00 | 39 | 1016.9 |
| 20260503233530 | 67 | 325 | 1.0 | 4.0 | 0.00 | 0.00 | 0.00 | 40 | 1016.8 |
| 20260503233050 | 67 | 279 | 2.0 | 7.0 | 0.00 | 0.00 | 0.00 | 39 | 1016.8 |
| 20260503232529 | 67 | 0 | 2.0 | 8.0 | 0.00 | 0.00 | 0.00 | 40 | 1016.8 |
| 20260503232030 | 67 | 294 | 2.0 | 8.0 | 0.00 | 0.00 | 0.00 | 39 | 1016.7 |
| 20260503231544 | 67 | 302 | 1.0 | 7.0 | 0.00 | 0.00 | 0.00 | 40 | 1016.8 |
| 20260503231031 | 67 | 36 | 1.0 | 8.0 | 0.00 | 0.00 | 0.00 | 40 | 1016.8 |
| 20260503230533 | 67 | 180 | 2.0 | 8.0 | 0.00 | 0.00 | 0.00 | 41 | 1016.9 |
| 20260503230040 | 67 | 0 | 2.0 | 8.0 | 0.00 | 0.00 | 0.00 | 40 | 1016.9 |
| 20260503225530 | 67 | 212 | 2.0 | 10.0 | 0.00 | 0.00 | 0.00 | 40 | 1016.9 |
| 20260503225030 | 67 | 260 | 3.0 | 10.0 | 0.00 | 0.00 | 0.00 | 40 | 1016.9 |
| 20260503224542 | 68 | 230 | 2.0 | 10.0 | 0.00 | 0.00 | 0.00 | 40 | 1017.0 |
| 20260503224032 | 68 | 242 | 2.0 | 8.0 | 0.00 | 0.00 | 0.00 | 39 | 1016.8 |
| 20260503223529 | 68 | 236 | 2.0 | 8.0 | 0.00 | 0.00 | 0.00 | 39 | 1017.0 |
| 20260503223038 | 68 | 326 | 3.0 | 10.0 | 0.00 | 0.00 | 0.00 | 37 | 1017.0 |
| 20260503222529 | 68 | 303 | 2.0 | 11.0 | 0.00 | 0.00 | 0.00 | 37 | 1017.0 |
| 20260503222030 | 68 | 199 | 5.0 | 11.0 | 0.00 | 0.00 | 0.00 | 37 | 1017.0 |
| 20260503221550 | 68 | 267 | 4.0 | 11.0 | 0.00 | 0.00 | 0.00 | 36 | 1017.0 |
| 20260503221030 | 68 | 250 | 2.0 | 11.0 | 0.00 | 0.00 | 0.00 | 37 | 1017.1 |
| 20260503220530 | 69 | 284 | 4.0 | 10.0 | 0.00 | 0.00 | 0.00 | 37 | 1017.1 |
| 20260503220057 | 68 | 224 | 4.0 | 10.0 | 0.00 | 0.00 | 0.00 | 37 | 1017.1 |
| 20260503215531 | 68 | 5 | 2.0 | 12.0 | 0.00 | 0.00 | 0.00 | 37 | 1017.1 |
| 20260503215030 | 68 | 284 | 2.0 | 12.0 | 0.00 | 0.00 | 0.00 | 37 | 1017.0 |
| 20260503214540 | 68 | 198 | 6.0 | 12.0 | 0.00 | 0.00 | 0.00 | 37 | 1017.1 |
| 20260503214034 | 69 | 210 | 5.0 | 11.0 | 0.00 | 0.00 | 0.00 | 37 | 1017.2 |
| 20260503213529 | 69 | 256 | 2.0 | 9.0 | 0.00 | 0.00 | 0.00 | 38 | 1017.1 |
| 20260503213039 | 69 | 181 | 3.0 | 9.0 | 0.00 | 0.00 | 0.00 | 37 | 1017.2 |
| 20260503212531 | 69 | 301 | 2.0 | 11.0 | 0.00 | 0.00 | 0.00 | 37 | 1017.3 |
| 20260503212029 | 69 | 331 | 3.0 | 11.0 | 0.00 | 0.00 | 0.00 | 38 | 1017.4 |
| 20260503211540 | 68 | 230 | 3.0 | 9.0 | 0.00 | 0.00 | 0.00 | 38 | 1017.2 |
| 20260503211030 | 69 | 271 | 4.0 | 9.0 | 0.00 | 0.00 | 0.00 | 39 | 1017.5 |
| 20260503210531 | 68 | 291 | 2.0 | 9.0 | 0.00 | 0.00 | 0.00 | 39 | 1017.5 |
| 20260503210048 | 68 | 211 | 2.0 | 9.0 | 0.00 | 0.00 | 0.00 | 38 | 1017.5 |
| 20260503205533 | 69 | 281 | 3.0 | 9.0 | 0.00 | 0.00 | 0.00 | 39 | 1017.6 |
| 20260503205033 | 69 | 263 | 3.0 | 7.0 | 0.00 | 0.00 | 0.00 | 39 | 1017.5 |
| 20260503204557 | 68 | 192 | 2.0 | 15.0 | 0.00 | 0.00 | 0.00 | 40 | 1017.4 |
| 20260503204030 | 69 | 227 | 3.0 | 15.0 | 0.00 | 0.00 | 0.00 | 40 | 1017.6 |
| 20260503203529 | 69 | 221 | 3.0 | 11.0 | 0.00 | 0.00 | 0.00 | 42 | 1017.7 |
| 20260503203042 | 68 | 323 | 3.0 | 11.0 | 0.00 | 0.00 | 0.00 | 41 | 1017.7 |
| 20260503202529 | 69 | 223 | 2.0 | 11.0 | 0.00 | 0.00 | 0.00 | 41 | 1017.8 |
| 20260503202030 | 69 | 215 | 4.0 | 11.0 | 0.00 | 0.00 | 0.00 | 41 | 1017.9 |
| 20260503201539 | 69 | 197 | 4.0 | 12.0 | 0.00 | 0.00 | 0.00 | 42 | 1018.0 |
| 20260503201030 | 69 | 202 | 4.0 | 13.0 | 0.00 | 0.00 | 0.00 | 42 | 1017.9 |
| 20260503200530 | 69 | 205 | 3.0 | 15.0 | 0.00 | 0.00 | 0.00 | 42 | 1018.0 |
| 20260503200047 | 69 | 192 | 8.0 | 15.0 | 0.00 | 0.00 | 0.00 | 41 | 1018.1 |
| 20260503195530 | 69 | 214 | 5.0 | 13.0 | 0.00 | 0.00 | 0.00 | 42 | 1018.2 |
| 20260503195032 | 69 | 217 | 3.0 | 10.0 | 0.00 | 0.00 | 0.00 | 42 | 1018.3 |
| 20260503194545 | 68 | 277 | 6.0 | 10.0 | 0.00 | 0.00 | 0.00 | 43 | 1018.4 |
| 20260503194033 | 68 | 214 | 4.0 | 9.0 | 0.00 | 0.00 | 0.00 | 42 | 1018.5 |
| 20260503193532 | 68 | 299 | 3.0 | 11.0 | 0.00 | 0.00 | 0.00 | 40 | 1018.7 |
| 20260503193042 | 68 | 190 | 3.0 | 11.0 | 0.00 | 0.00 | 0.00 | 42 | 1018.7 |
| 20260503192531 | 68 | 311 | 4.0 | 12.0 | 0.00 | 0.00 | 0.00 | 40 | 1018.8 |
| 20260503192031 | 68 | 190 | 3.0 | 12.0 | 0.00 | 0.00 | 0.00 | 41 | 1018.9 |
| 20260503191543 | 68 | 236 | 5.0 | 10.0 | 0.00 | 0.00 | 0.00 | 40 | 1019.0 |
| 20260503191031 | 68 | 183 | 4.0 | 10.0 | 0.00 | 0.00 | 0.00 | 39 | 1019.1 |
| 20260503190530 | 69 | 194 | 4.0 | 10.0 | 0.00 | 0.00 | 0.00 | 41 | 1019.2 |
| 20260503190046 | 69 | 271 | 5.0 | 10.0 | 0.00 | 0.00 | 0.00 | 42 | 1019.3 |
| 20260503185532 | 68 | 170 | 3.0 | 11.0 | 0.00 | 0.00 | 0.00 | 42 | 1019.3 |
| 20260503185030 | 68 | 225 | 4.0 | 14.0 | 0.00 | 0.00 | 0.00 | 42 | 1019.4 |
| 20260503184551 | 68 | 186 | 6.0 | 14.0 | 0.00 | 0.00 | 0.00 | 42 | 1019.4 |
| 20260503184030 | 68 | 245 | 3.0 | 10.0 | 0.00 | 0.00 | 0.00 | 42 | 1019.4 |
| 20260503183532 | 67 | 219 | 5.0 | 10.0 | 0.00 | 0.00 | 0.00 | 43 | 1019.5 |
| 20260503183051 | 66 | 304 | 3.0 | 11.0 | 0.00 | 0.00 | 0.00 | 43 | 1019.5 |
| 20260503182531 | 66 | 79 | 5.0 | 11.0 | 0.00 | 0.00 | 0.00 | 42 | 1019.5 |
| 20260503182031 | 67 | 331 | 5.0 | 11.0 | 0.00 | 0.00 | 0.00 | 43 | 1019.6 |
| 20260503181542 | 66 | 5 | 3.0 | 9.0 | 0.00 | 0.00 | 0.00 | 43 | 1019.6 |
| 20260503181032 | 66 | 294 | 3.0 | 11.0 | 0.00 | 0.00 | 0.00 | 42 | 1019.6 |
| 20260503180530 | 66 | 350 | 5.0 | 11.0 | 0.00 | 0.00 | 0.00 | 42 | 1019.6 |
| 20260503180046 | 66 | 5 | 1.0 | 12.0 | 0.00 | 0.00 | 0.00 | 42 | 1019.7 |
| 20260503175532 | 65 | 0 | 3.0 | 12.0 | 0.00 | 0.00 | 0.00 | 42 | 1019.8 |
| 20260503175031 | 65 | 350 | 4.0 | 12.0 | 0.00 | 0.00 | 0.00 | 43 | 1019.8 |
| 20260503174540 | 65 | 40 | 2.0 | 8.0 | 0.00 | 0.00 | 0.00 | 42 | 1019.8 |
| 20260503174034 | 65 | 257 | 2.0 | 11.0 | 0.00 | 0.00 | 0.00 | 43 | 1019.9 |
| 20260503173527 | 65 | 302 | 4.0 | 11.0 | 0.00 | 0.00 | 0.00 | 41 | 1019.9 |
| 20260503173101 | 65 | 318 | 5.0 | 10.0 | 0.00 | 0.00 | 0.00 | 41 | 1020.0 |
| 20260503172529 | 64 | 330 | 3.0 | 9.0 | 0.00 | 0.00 | 0.00 | 42 | 1020.0 |
| 20260503172027 | 64 | 234 | 2.0 | 9.0 | 0.00 | 0.00 | 0.00 | 42 | 1020.1 |
| 20260503171547 | 64 | 211 | 3.0 | 9.0 | 0.00 | 0.00 | 0.00 | 43 | 1020.1 |
| 20260503171031 | 64 | 215 | 2.0 | 8.0 | 0.00 | 0.00 | 0.00 | 43 | 1020.1 |
| 20260503170530 | 64 | 304 | 4.0 | 8.0 | 0.00 | 0.00 | 0.00 | 45 | 1020.1 |
| 20260503150532 | 60 | 296 | 3.0 | 8.0 | 0.00 | 0.00 | 0.00 | 55 | 1020.7 |
| 20260503131034 | 52 | 313 | 1.0 | 5.0 | 0.00 | 0.00 | 0.00 | 76 | 1020.2 |
| 20260503130531 | 51 | 315 | 2.0 | 5.0 | 0.00 | 0.00 | 0.00 | 76 | 1020.2 |
| 20260503110530 | 42 | 0 | 0.0 | 2.0 | 0.00 | 0.00 | 0.00 | 86 | 1019.5 |